Mills, WY

7:08 PM MST on February 06, 2016 (GMT -0700)
Natrona County International

Weather History for KCPR - May, 2014

Change the Weather History Date:

Saturday, May 3, 2014

  Actual Average Record
Temperature  
Mean Temperature 59 °F 48 °F  
Max Temperature 80 °F 63 °F 83 °F (1952)
Min Temperature 37 °F 33 °F 17 °F (1954)
Degree Days  
Heating Degree Days 6 17  
Month to date heating degree days 39 52  
Since 1 July heating degree days 7375 7094  
Cooling Degree Days 0 0  
Month to date cooling degree days 0 0  
Year to date cooling degree days 0 0  
Growing Degree Days 12 (Base 50)    
Moisture  
Dew Point 35 °F    
Average Humidity 52    
Maximum Humidity 92    
Minimum Humidity 11    
Precipitation  
Precipitation 0.00 in 0.06 in 0.93 in (1959)
Month to date precipitation 0.00 0.18  
Year to date precipitation 4.27 3.37  
Snow  
Snow 0.00 in 0.20 in - ()
Month to date snowfall 0.0 0.6  
Since 1 July snowfall 90.7 72.5  
Snow Depth 0.00 in    
Sea Level Pressure  
Sea Level Pressure 29.74 in    
Wind  
Wind Speed 15 mph (West)    
Max Wind Speed 29 mph    
Max Gust Speed 37 mph    
Visibility 10 miles    
Events      
T = Trace of Precipitation, MM = Missing Value Source: NWS Daily Summary

Daily Weather History Graph

Daily Weather History Graph

Search for Another Location

Airport or City:

Trip Planner

Search our weather history database for the weather conditions in past years. The results will help you decide how hot, cold, wet, or windy it might be!

Date:

Astronomy

May. 03, 2014 Rise Set
Actual Time 5:57 AM MDT 8:09 PM MDT
Civil Twilight 5:25 AM MDT 8:40 PM MDT
Nautical Twilight 4:47 AM MDT 9:18 PM MDT
Astronomical Twilight 4:05 AM MDT 10:01 PM MDT
Moon 9:28 AM MDT (5/3) No Moon Set
Length of Visible Light 15h 14m
Length of Day
14h 11m
Waxing Crescent, 20% of the Moon is Illuminated
May 3
Waxing Crescent
May 6
First Quarter
May 14
Full
May 21
Last Quarter
May 28
New

Hourly Weather History & Observations

Time (MDT) Temp. Windchill Dew Point Humidity Pressure Visibility Wind Dir Wind Speed Gust Speed Precip Events Conditions
12:53 AM 39.9 °F 37.8 °F 36.0 °F 86% 29.86 in 10.0 mi NW 3.5 mph - N/A   Clear
1:53 AM 37.9 °F 32.1 °F 35.1 °F 89% 29.84 in 10.0 mi West 8.1 mph - N/A   Clear
2:53 AM 46.0 °F 40.6 °F 37.9 °F 73% 29.80 in 10.0 mi West 11.5 mph - N/A   Clear
3:53 AM 42.1 °F 37.1 °F 36.0 °F 79% 29.79 in 10.0 mi SSW 8.1 mph - N/A   Clear
4:53 AM 46.0 °F 40.6 °F 35.1 °F 66% 29.76 in 10.0 mi SW 11.5 mph - N/A   Clear
5:53 AM 48.9 °F - 33.1 °F 54% 29.75 in 10.0 mi SW 15.0 mph - N/A   Clear
6:53 AM 51.1 °F - 30.0 °F 44% 29.75 in 10.0 mi SSW 18.4 mph - N/A   Clear
7:53 AM 54.0 °F - 30.0 °F 40% 29.78 in 10.0 mi SW 18.4 mph - N/A   Clear
8:53 AM 60.1 °F - 30.9 °F 33% 29.79 in 10.0 mi SW 19.6 mph 26.5 mph N/A   Clear
9:53 AM 66.0 °F - 32.0 °F 28% 29.76 in 10.0 mi SW 18.4 mph 25.3 mph N/A   Clear
10:53 AM 71.1 °F - 30.9 °F 23% 29.76 in 10.0 mi SSW 15.0 mph 23.0 mph N/A   Clear
11:53 AM 75.0 °F - 26.1 °F 16% 29.74 in 10.0 mi WSW 17.3 mph 24.2 mph N/A   Clear
12:53 PM 77.0 °F - 19.9 °F 12% 29.71 in 10.0 mi West 27.6 mph 32.2 mph N/A   Clear
1:53 PM 79.0 °F - 19.9 °F 11% 29.69 in 10.0 mi WSW 24.2 mph 29.9 mph N/A   Clear
2:53 PM 78.1 °F - 19.9 °F 11% 29.66 in 10.0 mi West 19.6 mph 32.2 mph N/A   Clear
3:53 PM 75.0 °F - 37.0 °F 25% 29.66 in 10.0 mi NNE 13.8 mph - N/A   Clear
4:53 PM 72.0 °F - 41.0 °F 33% 29.65 in 10.0 mi NNE 16.1 mph - N/A   Clear
5:53 PM 70.0 °F - 46.0 °F 42% 29.67 in 10.0 mi North 16.1 mph - N/A   Clear
6:53 PM 62.1 °F - 46.9 °F 58% 29.70 in 10.0 mi North 15.0 mph - N/A   Clear
7:53 PM 55.9 °F - 45.0 °F 67% 29.73 in 10.0 mi North 15.0 mph - N/A   Clear
8:53 PM 50.0 °F - 42.1 °F 74% 29.76 in 10.0 mi NNW 10.4 mph - N/A   Clear
9:53 PM 46.0 °F 41.0 °F 41.0 °F 83% 29.78 in 10.0 mi NNW 10.4 mph - N/A   Clear
10:53 PM 45.0 °F 40.1 °F 39.9 °F 82% 29.77 in 10.0 mi NNW 9.2 mph - N/A   Mostly Cloudy
11:53 PM 46.9 °F - 41.0 °F 80% 29.76 in 10.0 mi Calm Calm - N/A   Overcast